Flag for Iceland Weather past 2 weeks in Keflavík, Iceland

Now
30 °F

Partly cloudy.


Feels Like: 19 °F
Forecast: 33 / 46 °F
Wind: 16 mph from Southeast

Location: Keflavikurflugvollur

Current Time: Dec 20, 2014 at 7:00:48 AM

Latest Report: Dec 20, 2014 at 6:30 AM


Visibility: N/A

Pressure: 29.62 "Hg

Humidity: 80%

Dew point: 25 °F

Location of KeflavíkLocation

Historic Weather in Keflavík — Graph

°F

Keflavík temperature yesterday

Maximum temperature yesterday: 36 °F (at 1:30 AM)
Minimum temperature yesterday: 27 °F (at 9:30 PM)
Average temperature yesterday: 31 °F

Past Weeks' High & Low Weather Summary

 TemperatureHumidityPressure
High39 °F (Dec 5, 9:00 PM)100% (Dec 5, 4:00 PM)29.92 "Hg (Dec 5, 4:00 PM)
Low19 °F (Dec 14, 10:00 PM)45% (Dec 13, 8:00 PM)28.12 "Hg (Dec 9, 5:00 PM)
Average29 °F82%29.13 "Hg
* Reported Dec 5 6:00 AM — Dec 20 6:00 AM, Keflavík, Weather by CustomWeather, © 2014

Note: Actual official high and low records may vary slightly from our data, if they occured in-between our weather recording intervals... More about our weather records

Advertising

Keflavík weather history for previous 24 hours

 ConditionsComfort  
Time TempWeatherWind HumidityBarometerVisibility
6:00 AM
Dec 20
32 °FClear.12 mph75%29.65 "Hg10 mi
5:30 AM30 °FClear.10 mph80%29.65 "Hg10 mi
5:00 AM30 °FClear.10 mph86%29.65 "Hg10 mi
4:30 AM30 °FClear.10 mph93%29.65 "Hg10 mi
4:00 AM30 °FClear.9 mph86%29.68 "Hg10 mi
3:30 AM28 °FClear.3 mph86%29.68 "Hg10 mi
3:00 AM28 °FClear.1 mph93%29.68 "Hg10 mi
2:30 AM23 °FClear.2 mph100%29.68 "Hg10 mi
2:00 AM21 °FClear.6 mph93%29.68 "Hg10 mi
1:30 AM30 °FClear.2 mph86%29.65 "Hg10 mi
1:00 AM27 °FClear.6 mph86%29.65 "Hg10 mi
12:30 AM30 °FClear.5 mph86%29.65 "Hg10 mi
12:00 AM32 °FClear.5 mph87%29.62 "Hg10 mi
11:30 PM
Dec 19
30 °FClear.8 mph80%29.62 "Hg10 mi
11:00 PM30 °FClear.12 mph86%29.59 "Hg10 mi
10:30 PM28 °FPassing clouds.7 mph86%29.59 "HgN/A
10:00 PM28 °FPassing clouds.7 mph86%29.56 "HgN/A
9:30 PM27 °FPassing clouds.6 mph93%29.56 "HgN/A
9:00 PM30 °FPassing clouds.8 mph86%29.53 "HgN/A
8:30 PM30 °FPassing clouds.8 mph86%29.53 "HgN/A
8:00 PM32 °FPassing clouds.9 mph80%29.50 "HgN/A
7:30 PM34 °FPassing clouds.6 mph81%29.47 "HgN/A
7:00 PM32 °FPassing clouds.8 mph87%29.47 "HgN/A
6:30 PM32 °FPassing clouds.12 mph87%29.45 "HgN/A
6:00 PM32 °FPassing clouds.12 mph87%29.42 "HgN/A
5:30 PM32 °FPartly cloudy.13 mph93%29.42 "HgN/A
5:00 PM32 °FPassing clouds.15 mph93%29.39 "HgN/A
4:30 PM32 °FScattered showers. Partly cloudy.10 mph93%29.36 "HgN/A
4:01 PM34 °FPassing clouds.12 mph93%29.36 "HgN/A
3:30 PM34 °FScattered showers. Broken clouds.12 mph87%29.33 "HgN/A
3:00 PM36 °FScattered showers. Broken clouds.9 mph87%29.30 "HgN/A
2:30 PM34 °FScattered showers. Broken clouds.10 mph93%29.30 "HgN/A
2:00 PM34 °FBroken clouds.14 mph87%29.27 "HgN/A
1:30 PM30 °FBroken clouds.12 mph80%29.24 "HgN/A
1:00 PM28 °FBroken clouds.9 mph86%29.24 "HgN/A
12:30 PM28 °FBroken clouds.9 mph86%29.24 "HgN/A
12:00 PM32 °FBroken clouds.9 mph80%29.21 "HgN/A
11:30 AM30 °FScattered clouds.6 mph80%29.18 "HgN/A
11:00 AM28 °FPassing clouds.12 mph86%29.18 "HgN/A
10:30 AM28 °FLight snow. Passing clouds.13 mph86%29.15 "HgN/A
10:00 AM30 °FPassing clouds.13 mph86%29.15 "HgN/A
9:30 AM28 °FLight snow. Passing clouds.10 mph86%29.12 "HgN/A
9:00 AM28 °FLight snow. Partly cloudy.12 mph93%29.09 "HgN/A
8:30 AM30 °FPassing clouds.10 mph93%29.09 "HgN/A
8:00 AM30 °FPassing clouds.10 mph100%29.06 "HgN/A
7:30 AM30 °FLight snow. Passing clouds.10 mph100%29.06 "HgN/A
7:00 AM30 °FLight snow. Overcast.8 mph100%29.03 "Hg2 mi
Weather by CustomWeather, © 2014

See weather overviewHow to use our weather pages